Location: Great Waltham
(51.7833°N, 0.4500°E)
Time: 08:09:10
(UTC+00:00)

Daily predictions for brighter satellites

Satellite Brightness Start Highest point End
(mag) Time Altitude Azimuth Time Altitude Azimuth Time Altitude Azimuth
NOSS 2-1 (E) 4.0 21:00:03 10° NW 21:04:24 85° SW 21:10:35 10° SE
SPOT 3 Rocket 3.8 21:01:20 10° S 21:06:31 77° WSW 21:11:47 10° NNW
RESURS DK-1 3.3 21:04:39 10° NNW 21:08:35 40° NE 21:12:30 10° ESE
ERS-1 Rocket 3.1 21:04:36 10° SSE 21:09:37 70° ENE 21:14:39 10° N
Lacrosse 4 Rocket 4.0 21:09:23 10° W 21:12:55 26° NW 21:16:24 10° NNE
CZ-2C R/B 4.2 21:11:38 10° NNE 21:16:01 41° E 21:20:17 10° S
Cosmos 2056 Rocket 3.6 21:12:11 10° SSW 21:17:35 86° ESE 21:23:04 10° NNE
Cosmos 1025 Rocket 3.3 21:13:47 10° SSW 21:18:03 72° WNW 21:22:22 10° N
Cosmos 1455 Rocket 4.2 21:14:05 10° NNW 21:18:12 42° W 21:22:16 10° SSW
Cosmos 1741 Rocket 4.4 21:15:12 10° NNW 21:20:28 59° ENE 21:25:44 10° SE
Cosmos 2315 Rocket 4.2 21:14:20 10° SSW 21:20:42 79° W 21:27:02 10° N
ARIANE 5 R/B 3.0 21:18:26 10° SSE 21:22:48 55° ENE 21:27:10 10° N
Cosmos 676 Rocket 4.5 21:18:20 10° NNW 21:23:34 59° WSW 21:28:45 10° S
Cosmos 1420 Rocket 4.0 21:20:12 10° SSW 21:25:27 83° ESE 21:30:47 10° NNE
Cosmos 2344 4.4 21:17:18 10° NW 21:25:38 68° NE 21:37:00 10° ESE
SL-8 R/B 3.8 21:22:31 10° W 21:27:14 57° S 21:31:58 10° ESE
Cosmos 1455 2.7 21:27:02 10° NNW 21:30:47 57° W 21:34:31 10° S
Cosmos 2074 Rocket 4.1 21:27:18 10° N 21:33:38 80° E 21:39:53 10° SSE
Meteor 2-5 Rocket 4.4 21:34:47 10° SSW 21:40:12 55° WNW 21:45:42 10° N
USA 32 4.4 21:35:03 10° SSW 21:40:15 68° W 21:45:29 10° N
SL-16 R/B 4.4 21:38:55 10° NNW 21:42:56 19° NNE 21:46:56 10° ENE
Cosmos 1607 4.0 21:36:49 10° SW 21:43:04 86° NW 21:49:18 10° NE
USA 267 3.6 21:38:48 10° ENE 21:44:55 40° SE 21:51:00 10° SSW
Cosmos 2228 3.0 21:44:02 10° N 21:48:18 76° ENE 21:52:05 13° SSE
Cosmos 1536 Rocket 3.5 21:44:06 10° S 21:48:25 84° ESE 21:52:48 10° NNE
Tiangong 3.5 21:49:56 10° SSW 21:50:09 10° SSW 21:50:23 10° S
Cosmos 1850 Rocket 4.0 21:45:26 10° NNW 21:50:41 82° WSW 21:55:21 13° SSE
Cosmos 1980 Rocket 3.1 21:45:31 10° NNW 21:50:59 44° NE 21:56:23 10° ESE
SPOT 5 3.5 21:47:06 10° S 21:51:21 44° W 21:55:31 10° NNW
Nadezhda 1 Rocket 4.1 21:47:15 10° S 21:53:11 57° E 21:59:08 10° NNE
Cosmos 1606 Rocket 3.8 21:49:04 10° N 21:53:20 57° ENE 21:56:56 14° SSE
Cosmos 1697 Rocket 2.8 21:48:03 10° NNW 21:53:43 74° ENE 21:58:44 13° SE
Cosmos 1703 3.2 21:51:32 10° S 21:55:22 76° E 21:59:15 10° NNE
Cosmos 2154 Rocket 4.0 21:52:11 10° N 21:58:28 85° E 22:04:14 12° S
Cosmos 2084 Rocket 4.0 21:54:53 10° NW 21:58:39 49° NE 22:02:33 10° ESE
Cosmos 2084 3.6 21:56:21 10° SW 22:00:10 68° NW 22:04:05 10° NE
Cosmos 1656 4.1 21:57:47 10° NW 22:03:05 53° WSW 22:07:56 13° S
USA 276 2.3 22:00:38 10° SW 22:03:30 40° SSE 22:06:21 10° E
Cosmos 1328 4.3 22:04:04 15° SSE 22:07:07 46° E 22:10:59 10° NNE
Cosmos 1331 Rocket 4.3 22:04:06 10° S 22:09:09 51° ESE 22:14:17 10° NNE
X-37B 1.7 22:10:33 10° SW 22:12:46 21° S 22:12:57 20° S
Meteor 1-21 Rocket 4.2 22:10:01 10° S 22:15:34 78° E 22:21:17 10° NNE
Lacrosse 5 3.3 22:12:36 10° WNW 22:16:46 25° SW 22:20:08 13° S
Cosmos 1408 3.7 22:15:25 17° SE 22:17:13 27° E 22:20:11 10° NNE
Cosmos 1726 Rocket 3.5 22:13:49 10° N 22:18:09 78° E 22:21:23 17° SSE
SAR-Lupe-4 3.7 22:14:52 10° NNE 22:18:25 57° ESE 22:20:59 17° S
Cosmos 1452 Rocket 3.6 22:13:52 10° SSW 22:19:09 86° WNW 22:24:27 10° NNE
ATLAS 2AS CENTAUR R/B 3.9 22:13:52 10° NW 22:19:53 31° WSW 22:25:25 11° S
FALCON 9 DEB 3.3 22:17:13 10° W 22:20:29 68° N 22:23:44 10° E
USA 234 3.3 22:14:36 10° SE 22:21:11 79° SSW 22:27:47 10° WNW
Terra 3.0 22:17:11 10° SSW 22:21:35 37° W 22:26:00 10° NNW
Cosmos 2322 Rocket 4.2 22:17:55 10° NNW 22:22:24 23° NE 22:26:52 10° E
Cosmos 1833 Rocket 2.7 22:18:15 10° SSW 22:23:46 63° ESE 22:29:21 10° NE
Cosmos 1867 4.0 22:20:39 10° NW 22:26:06 62° NE 22:31:17 11° ESE
Cosmos 2278 4.4 22:21:34 10° NNW 22:27:08 48° NE 22:32:24 11° SE
SL-8 Rocket 4.2 22:22:41 10° N 22:28:55 61° ENE 22:33:46 17° SSE
Cosmos 1110 Rocket 4.0 22:26:03 10° SSW 22:31:18 80° ESE 22:36:38 10° NNE
Cosmos 2360 4.4 22:26:07 10° NW 22:31:48 65° WSW 22:36:09 18° SSE
SAR-Lupe-1 4.1 22:30:59 10° NNE 22:34:35 83° WNW 22:37:27 15° SSW
Cosmos 1302 Rocket 4.5 22:31:56 17° SSE 22:35:30 43° ESE 22:40:24 10° NE
ALOS 2 3.5 22:32:45 15° SE 22:35:59 39° ENE 22:40:04 10° N
Cosmos 2218 Rocket 4.3 22:34:36 10° N 22:41:00 64° ENE 22:45:53 18° SSE
Cosmos 2366 rocket 4.2 22:38:28 10° N 22:44:46 67° ENE 22:49:34 18° SSE
RESURS DK-1 3.7 22:42:52 10° NW 22:46:28 29° WSW 22:48:58 16° SSW
Cosmos 2082 Rocket 2.7 22:42:49 18° S 22:46:43 43° ESE 22:52:06 10° NE
H-2A R/B 4.5 22:45:13 10° NNE 22:49:02 32° E 22:51:09 20° SE
Cosmos 2341 Rocket 4.1 22:42:55 10° N 22:49:18 86° W 22:54:07 18° S
Cosmos 2058 Rocket 3.1 22:47:45 10° NNW 22:52:10 82° W 22:55:04 21° S
Spot 4 3.8 22:52:43 21° SSE 22:55:58 88° ENE 23:00:47 10° NNW
Cosmos 1892 Rocket 3.6 22:53:33 17° SSW 22:56:54 80° WNW 23:01:18 10° N
Cosmos 1825 2.8 22:58:50 24° SSE 23:00:37 42° E 23:04:11 10° NNE
Cosmos 2360 Rocket 4.0 22:57:18 10° NNW 23:02:07 27° NE 23:06:54 10° E
Cosmos 968 Rocket 3.6 22:58:48 10° NNW 23:03:57 65° WSW 23:07:22 21° S
Cosmos 192 4.3 23:00:40 17° SSW 23:04:30 79° ESE 23:09:26 10° NNE
ERS-2 3.7 23:01:48 10° NE 23:04:37 21° E 23:05:53 18° ESE
Cosmos-2242 4.1 23:01:36 10° N 23:05:31 34° ENE 23:08:16 17° SE
GP-B 3.5 23:03:45 10° N 23:08:07 57° W 23:11:19 18° SSW
SL-8 R/B 4.5 23:05:01 10° W 23:09:19 33° SSW 23:11:22 23° SSE
Cosmos 1959 Rocket 4.4 23:03:11 10° N 23:09:19 88° W 23:13:40 20° S
Cosmos 1626 Rocket 3.8 23:10:22 24° SSE 23:12:46 55° E 23:17:02 10° NNE
Cosmos 1869 3.2 23:11:11 10° N 23:15:04 87° E 23:17:08 27° SSE
Cosmos 1606 4.1 23:12:30 10° N 23:15:55 29° ENE 23:18:18 16° ESE
BREEZE-M DEB (TANK) 3.6 23:13:23 10° W 23:16:29 67° S 23:27:45 10° ESE
Meteor 1-27 4.2 23:11:18 10° NNW 23:16:55 83° W 23:20:39 22° S
ASTEX 1 4.2 23:13:12 10° N 23:18:00 47° WNW 23:22:15 13° SSW
Cosmos 2181 Rocket 4.0 23:20:12 19° S 23:24:50 86° WNW 23:31:06 10° N
COSMOS 2406 3.3 23:19:53 11° SSW 23:25:31 81° WNW 23:31:20 10° NNE
ADEOS Rocket 3.5 23:20:28 20° SSE 23:25:52 86° WSW 23:33:38 10° NNW
Cosmos 2369 4.4 23:21:09 10° NW 23:26:34 44° WSW 23:30:04 21° S
Cosmos 1633 3.2 23:25:15 27° SE 23:26:38 40° E 23:29:55 10° NNE
SL-16 R/B 2.6 23:22:35 10° NNW 23:28:14 61° NE 23:33:07 14° SE
USA 267 3.3 23:21:47 10° ENE 23:28:22 87° NNW 23:34:56 10° WSW
Okean 1-7 Rocket 3.6 23:27:28 23° S 23:30:12 88° W 23:34:43 10° N
Cosmos 1892 3.4 23:30:47 19° SW 23:33:13 47° WNW 23:36:53 10° N
Cosmos 1980 Rocket 2.9 23:29:39 10° NW 23:35:01 42° WSW 23:38:22 21° SSW
SJ 16-02 2.2 23:31:33 10° NNW 23:35:50 45° ENE 23:39:13 15° SE
Cosmos 1486 Rocket 4.0 23:31:05 10° NNW 23:36:18 74° WSW 23:39:34 23° SSE
Cosmos 1697 Rocket 4.3 23:32:52 10° NW 23:37:07 23° WSW 23:40:27 14° SW
Cosmos 2084 Rocket 4.3 23:34:29 10° WNW 23:37:55 29° SW 23:39:10 24° SSW
USA 276 1.9 23:36:01 10° W 23:38:59 62° S 23:41:58 10° E
Cosmos 1821 Rocket 4.0 23:35:17 10° N 23:41:37 84° E 23:45:54 21° SSE
Cosmos 2219 Rocket 4.2 23:37:46 10° NNW 23:42:29 26° NE 23:47:10 10° E
Cosmos 1340 Rocket 4.4 23:48:44 16° SE 23:50:35 23° E 23:53:44 10° NE
Cosmos 1992 Rocket 4.0 23:48:18 22° SSW 23:51:47 81° ESE 23:57:03 10° NNE
Cosmos 1408 4.4 23:49:23 12° WSW 23:51:53 24° WNW 23:54:45 10° NNW
Resurs 1-4 Rocket 4.5 23:56:09 10° ENE 23:57:36 11° E 23:59:04 10° E
